Hourly Weather Washington

Today, 31 July, Saturday

Time Temperature Precipitation Wind Pressure Humidity
00:00 +20°C° 0 mm 2 mps 754 mmHg 61%
01:00 +19°C° 0 mm 2 mps 755 mmHg 66%
02:00 +18°C° 0 mm 2 mps 755 mmHg 66%
03:00 +17°C° 0 mm 2 mps 755 mmHg 66%
04:00 +16°C° 0 mm 2 mps 755 mmHg 67%
05:00 +17°C° 0 mm 2 mps 755 mmHg 63%
06:00 +19°C° 0 mm 1 mps 755 mmHg 60%
07:00 +20°C° 0 mm 1 mps 755 mmHg 57%
08:00 +22°C° 0 mm 1 mps 755 mmHg 51%
09:00 +24°C° 0 mm 1 mps 755 mmHg 46%
10:00 +24°C° 0 mm 0 mps 755 mmHg 40%
11:00 +28°C° 0 mm 1 mps 755 mmHg 38%
12:00 +29°C° 0 mm 1 mps 754 mmHg 36%
13:00 +31°C° 0 mm 1 mps 754 mmHg 34%
14:00 +31°C° 0 mm 1 mps 753 mmHg 33%
15:00 +31°C° 0 mm 1 mps 753 mmHg 33%
16:00 +32°C° 0 mm 1 mps 752 mmHg 32%
17:00 +30°C° 0 mm 1 mps 752 mmHg 37%
18:00 +29°C° 0 mm 1 mps 752 mmHg 42%
19:00 +27°C° 0 mm 1 mps 753 mmHg 47%
20:00 +26°C° 0 mm 1 mps 753 mmHg 51%
21:00 +25°C° 0 mm 1 mps 753 mmHg 55%
22:00 +24°C° 0 mm 1 mps 753 mmHg 59%
23:00 +23°C° 0 mm 1 mps 753 mmHg 62%

Tomorrow, 1 August, Sunday

Time Temperature Precipitation Wind Pressure Humidity
00:00 +22°C° 0 mm 1 mps 753 mmHg 65%
01:00 +21°C° 0 mm 1 mps 752 mmHg 69%
02:00 +21°C° 0 mm 1 mps 752 mmHg 70%
03:00 +20°C° 0 mm 1 mps 752 mmHg 72%
04:00 +20°C° 0 mm 1 mps 752 mmHg 74%
05:00 +21°C° 0 mm 1 mps 752 mmHg 72%
06:00 +22°C° 0 mm 1 mps 752 mmHg 71%
07:00 +23°C° 0 mm 1 mps 752 mmHg 70%
08:00 +24°C° 0.1 mm 1 mps 752 mmHg 69%
09:00 +26°C° 0.1 mm 2 mps 752 mmHg 68%
10:00 +27°C° 0.1 mm 2 mps 752 mmHg 66%
11:00 +28°C° 0.3 mm 2 mps 751 mmHg 64%
12:00 +29°C° 0.3 mm 3 mps 751 mmHg 61%
13:00 +29°C° 0.3 mm 3 mps 750 mmHg 59%
14:00 +30°C° 0.2 mm 2 mps 750 mmHg 55%
15:00 +30°C° 0.2 mm 2 mps 749 mmHg 50%
16:00 +31°C° 0.2 mm 2 mps 749 mmHg 46%
17:00 +30°C° 0.1 mm 2 mps 749 mmHg 50%
18:00 +29°C° 0.1 mm 2 mps 749 mmHg 54%
19:00 +27°C° 0.1 mm 2 mps 749 mmHg 59%
20:00 +26°C° 0.1 mm 2 mps 750 mmHg 61%
21:00 +25°C° 0.1 mm 2 mps 750 mmHg 63%
22:00 +22°C° 0.1 mm 3 mps 750 mmHg 66%
23:00 +22°C° 0 mm 3 mps 751 mmHg 69%

Day after tomorrow, 2 August, Monday

Time Temperature Precipitation Wind Pressure Humidity
00:00 +21°C° 0 mm 3 mps 751 mmHg 72%
01:00 +20°C° 0 mm 3 mps 751 mmHg 75%
02:00 +20°C° 0 mm 4 mps 751 mmHg 77%
03:00 +19°C° 0 mm 4 mps 752 mmHg 79%
04:00 +19°C° 0 mm 4 mps 752 mmHg 82%
05:00 +19°C° 0 mm 4 mps 752 mmHg 78%
06:00 +20°C° 0 mm 4 mps 753 mmHg 74%
07:00 +20°C° 0 mm 4 mps 753 mmHg 71%
08:00 +22°C° 0 mm 5 mps 754 mmHg 61%
09:00 +25°C° 0 mm 5 mps 754 mmHg 52%
10:00 +27°C° 0 mm 5 mps 754 mmHg 43%
11:00 +28°C° 0 mm 4 mps 754 mmHg 39%
12:00 +29°C° 0 mm 4 mps 754 mmHg 35%
13:00 +30°C° 0 mm 4 mps 754 mmHg 31%
14:00 +31°C° 0 mm 3 mps 753 mmHg 31%
15:00 +31°C° 0 mm 3 mps 753 mmHg 30%
16:00 +31°C° 0 mm 3 mps 753 mmHg 29%
17:00 +29°C° 0 mm 3 mps 753 mmHg 35%
18:00 +27°C° 0 mm 3 mps 754 mmHg 41%
19:00 +26°C° 0 mm 2 mps 754 mmHg 47%
20:00 +24°C° 0 mm 2 mps 754 mmHg 52%
21:00 +23°C° 0 mm 1 mps 755 mmHg 57%
22:00 +21°C° 0 mm 1 mps 755 mmHg 63%
23:00 +21°C° 0 mm 1 mps 755 mmHg 64%

3 August, Tuesday

Time Temperature Precipitation Wind Pressure Humidity
00:00 +21°C° 0 mm 1 mps 755 mmHg 65%
01:00 +21°C° 0 mm 1 mps 756 mmHg 66%
02:00 +21°C° 0 mm 1 mps 755 mmHg 66%
03:00 +21°C° 0 mm 1 mps 755 mmHg 67%
04:00 +19°C° 0 mm 2 mps 755 mmHg 68%
05:00 +21°C° 0 mm 1 mps 756 mmHg 68%
06:00 +21°C° 0 mm 1 mps 756 mmHg 68%
07:00 +21°C° 0 mm 1 mps 756 mmHg 69%
08:00 +23°C° 0 mm 1 mps 756 mmHg 63%
09:00 +25°C° 0 mm 2 mps 757 mmHg 57%
10:00 +26°C° 0 mm 2 mps 757 mmHg 51%
11:00 +28°C° 0 mm 2 mps 756 mmHg 46%
12:00 +29°C° 0 mm 2 mps 756 mmHg 41%
13:00 +31°C° 0 mm 3 mps 755 mmHg 37%
14:00 +30°C° 0 mm 3 mps 755 mmHg 37%
15:00 +30°C° 0 mm 3 mps 755 mmHg 38%
16:00 +30°C° 0 mm 3 mps 755 mmHg 39%
17:00 +29°C° 0 mm 3 mps 755 mmHg 43%
18:00 +27°C° 0 mm 3 mps 755 mmHg 48%
19:00 +26°C° 0 mm 3 mps 756 mmHg 52%
20:00 +25°C° 0 mm 2 mps 756 mmHg 59%
21:00 +24°C° 0 mm 2 mps 756 mmHg 65%
22:00 +23°C° 0 mm 2 mps 757 mmHg 71%
23:00 +22°C° 0 mm 1 mps 757 mmHg 74%

4 August, Wednesday

Time Temperature Precipitation Wind Pressure Humidity
00:00 +22°C° 0 mm 1 mps 757 mmHg 77%
01:00 +21°C° 0 mm 1 mps 757 mmHg 79%
02:00 +21°C° 0 mm 1 mps 757 mmHg 80%
03:00 +20°C° 0 mm 1 mps 757 mmHg 81%
04:00 +18°C° 0 mm 0 mps 757 mmHg 82%
05:00 +19°C° 0 mm 0 mps 758 mmHg 80%
06:00 +19°C° 0 mm 0 mps 758 mmHg 77%
07:00 +20°C° 0 mm 0 mps 759 mmHg 75%
08:00 +24°C° 0 mm 1 mps 759 mmHg 68%
09:00 +25°C° 0 mm 2 mps 759 mmHg 62%
10:00 +27°C° 0 mm 2 mps 760 mmHg 55%
11:00 +28°C° 0 mm 3 mps 759 mmHg 50%
12:00 +29°C° 0 mm 3 mps 759 mmHg 44%
13:00 +30°C° 0 mm 4 mps 759 mmHg 38%
14:00 +30°C° 0 mm 4 mps 759 mmHg 39%
15:00 +30°C° 0 mm 4 mps 759 mmHg 40%
16:00 +29°C° 0 mm 4 mps 759 mmHg 40%
17:00 +28°C° 0 mm 4 mps 759 mmHg 46%
18:00 +27°C° 0 mm 3 mps 759 mmHg 51%
19:00 +25°C° 0 mm 3 mps 759 mmHg 57%
20:00 +24°C° 0 mm 2 mps 759 mmHg 62%
21:00 +23°C° 0 mm 2 mps 760 mmHg 66%
22:00 +21°C° 0 mm 2 mps 760 mmHg 71%
23:00 +21°C° 0 mm 2 mps 760 mmHg 74%

5 August, Thursday

Time Temperature Precipitation Wind Pressure Humidity
00:00 +20°C° 0 mm 2 mps 760 mmHg 78%
01:00 +21°C° 0 mm 1 mps 759 mmHg 81%
02:00 +20°C° 0 mm 2 mps 759 mmHg 83%
03:00 +20°C° 0 mm 2 mps 759 mmHg 85%
04:00 +19°C° 0 mm 2 mps 759 mmHg 87%
05:00 +19°C° 0.5 mm 2 mps 759 mmHg 88%
06:00 +19°C° 0.5 mm 3 mps 760 mmHg 90%
07:00 +19°C° 0.5 mm 3 mps 760 mmHg 92%
08:00 +19°C° 0.6 mm 3 mps 760 mmHg 93%
09:00 +19°C° 0.6 mm 3 mps 760 mmHg 94%
10:00 +18°C° 0.6 mm 3 mps 760 mmHg 95%
11:00 +19°C° 0.1 mm 3 mps 760 mmHg 94%
12:00 +19°C° 0.1 mm 3 mps 759 mmHg 94%
13:00 +19°C° 0.1 mm 3 mps 759 mmHg 94%
14:00 +20°C° 0 mm 3 mps 759 mmHg 94%
15:00 +20°C° 0 mm 2 mps 759 mmHg 94%
16:00 +20°C° 0 mm 2 mps 759 mmHg 94%
17:00 +20°C° 0 mm 2 mps 758 mmHg 95%
18:00 +19°C° 0 mm 2 mps 758 mmHg 95%
19:00 +19°C° 0 mm 2 mps 758 mmHg 96%
20:00 +19°C° 0.3 mm 2 mps 758 mmHg 96%
21:00 +20°C° 0.3 mm 1 mps 758 mmHg 97%
22:00 +20°C° 0.3 mm 1 mps 758 mmHg 97%
23:00 +20°C° 0.1 mm 1 mps 758 mmHg 97%
Show more